Woensdrecht, Netherlands

7:07 AM CET on December 16, 2017 (GMT +0100)
Woensdrecht Air Base

Weather History for EHWO - June, 2013

Change the Weather History Date:

Sunday, June 16, 2013

  Actual Average Record
Temperature  
Mean Temperature 58 °F -  
Max Temperature 66 °F 69 °F 77 °F (1999)
Min Temperature 48 °F 52 °F 39 °F (2008)
Degree Days  
Heating Degree Days 7    
Growing Degree Days 8 (Base 50)    
Moisture  
Dew Point 47 °F    
Average Humidity 66    
Maximum Humidity 87    
Minimum Humidity 46    
Precipitation  
Precipitation 0.00 in - - ()
Sea Level Pressure  
Sea Level Pressure 29.96 in    
Wind  
Wind Speed 9 mph ()    
Max Wind Speed 16 mph    
Max Gust Speed -    
Visibility 6.2 miles    
Events      
Averages and records for this station are not official NWS values.
T = Trace of Precipitation, MM = Missing Value Source: Averaged Metar Reports

Daily Weather History Graph

Daily Weather History Graph

Search for Another Location

Airport or City:

Trip Planner

Search our weather history database for the weather conditions in past years. The results will help you decide how hot, cold, wet, or windy it might be!

Date:

Astronomy

Jun. 16, 2013 Rise Set
Actual Time 5:25 AM CEST 10:01 PM CEST
Civil Twilight 4:37 AM CEST 10:49 PM CEST
Nautical Twilight 3:24 AM CEST 12:03 AM CEST
Astronomical Twilight 2:15 AM CEST 1:11 AM CEST
Moon 1:34 PM CEST 1:12 AM CEST
Length of Visible Light 18h 11m
Length of Day
16h 36m
Waxing Crescent, 47% of the Moon is Illuminated
Jun 16
Waxing Crescent
Jun 16
First Quarter
Jun 23
Full
Jun 30
Last Quarter
Jul 8
New

Hourly Weather History & Observations

Time (CEST) Temp. Dew Point Humidity Pressure Visibility Wind Dir Wind Speed Gust Speed Precip Events Conditions
12:25 AM 55.4 °F 44.6 °F 67% 29.92 in 6.2 mi WSW 16.1 mph - N/A   Unknown
12:55 AM 55.4 °F 44.6 °F 67% 29.92 in 6.2 mi SW 11.5 mph - N/A   Unknown
1:25 AM 55.4 °F 44.6 °F 67% 29.92 in 6.2 mi SW 11.5 mph - N/A   Unknown
1:55 AM 53.6 °F 44.6 °F 72% 29.92 in 6.2 mi SW 10.4 mph - N/A   Unknown
2:25 AM 53.6 °F 44.6 °F 72% 29.92 in 6.2 mi SW 10.4 mph - N/A   Unknown
2:55 AM 53.6 °F 44.6 °F 72% 29.92 in 6.2 mi SW 10.4 mph - N/A   Unknown
3:25 AM 53.6 °F 44.6 °F 72% 29.92 in 6.2 mi SW 10.4 mph - N/A   Mostly Cloudy
3:55 AM 53.6 °F 44.6 °F 72% 29.92 in 6.2 mi SW 9.2 mph - N/A   Overcast
4:25 AM 53.6 °F 44.6 °F 72% 29.92 in 6.2 mi SW 11.5 mph - N/A   Mostly Cloudy
4:55 AM 53.6 °F 44.6 °F 72% 29.92 in 6.2 mi SW 10.4 mph - N/A   Overcast
5:25 AM 51.8 °F 44.6 °F 76% 29.92 in 6.2 mi SW 8.1 mph - N/A   Unknown
5:55 AM 51.8 °F 44.6 °F 76% 29.95 in 6.2 mi SW 6.9 mph - N/A   Unknown
6:25 AM 53.6 °F 46.4 °F 77% 29.95 in 6.2 mi SW 8.1 mph - N/A   Partly Cloudy
6:55 AM 53.6 °F 46.4 °F 77% 29.95 in 6.2 mi SW 9.2 mph - N/A   Scattered Clouds
7:25 AM 55.4 °F 46.4 °F 72% 29.95 in 6.2 mi SW 9.2 mph - N/A   Partly Cloudy
7:55 AM 55.4 °F 46.4 °F 72% 29.95 in 6.2 mi SW 10.4 mph - N/A   Unknown
8:25 AM 57.2 °F 48.2 °F 72% 29.95 in 6.2 mi SW 10.4 mph - N/A   Mostly Cloudy
8:55 AM 57.2 °F 48.2 °F 72% 29.95 in 6.2 mi WSW 11.5 mph - N/A   Overcast
9:25 AM 59.0 °F 48.2 °F 67% 29.98 in 6.2 mi SW 12.7 mph - N/A   Partly Cloudy
9:55 AM 59.0 °F 48.2 °F 67% 29.98 in 6.2 mi WSW 12.7 mph - N/A   Unknown
10:25 AM 60.8 °F 48.2 °F 63% 29.98 in 6.2 mi WSW 11.5 mph - N/A   Mostly Cloudy
10:55 AM 60.8 °F 48.2 °F 63% 29.98 in 6.2 mi SW 10.4 mph - N/A   Unknown
11:25 AM 60.8 °F 48.2 °F 63% 29.98 in 6.2 mi SW 10.4 mph - N/A   Overcast
11:55 AM 62.6 °F 48.2 °F 59% 29.98 in 6.2 mi WSW 11.5 mph - N/A   Overcast
12:25 PM 64.4 °F 48.2 °F 56% 29.98 in 6.2 mi SW 12.7 mph - N/A   Mostly Cloudy
12:55 PM 64.4 °F 48.2 °F 56% 29.98 in 6.2 mi SW 11.5 mph - N/A   Mostly Cloudy
1:25 PM 66.2 °F 48.2 °F 52% 29.98 in 6.2 mi West 10.4 mph - N/A   Mostly Cloudy
1:55 PM 66.2 °F 46.4 °F 49% 29.98 in 6.2 mi West 8.1 mph - N/A   Overcast
2:25 PM 66.2 °F 44.6 °F 46% 29.98 in 6.2 mi WSW 8.1 mph - N/A   Overcast
2:55 PM 66.2 °F 46.4 °F 49% 29.98 in 6.2 mi West 6.9 mph - N/A   Mostly Cloudy
3:25 PM 64.4 °F 48.2 °F 56% 30.01 in 6.2 mi WNW 6.9 mph - N/A   Overcast
3:55 PM 64.4 °F 48.2 °F 56% 29.98 in 6.2 mi NW 4.6 mph - N/A   Light Drizzle
4:25 PM 64.4 °F 48.2 °F 56% 29.98 in 6.2 mi WSW 5.8 mph - N/A   Light Drizzle
4:55 PM 64.4 °F 50.0 °F 59% 29.98 in 6.2 mi West 5.8 mph - N/A   Drizzle
5:25 PM 62.6 °F 48.2 °F 59% 29.98 in 6.2 mi West 5.8 mph - N/A   Mostly Cloudy
5:55 PM 62.6 °F 50.0 °F 63% 30.01 in 6.2 mi West 4.6 mph - N/A   Drizzle
6:25 PM 62.6 °F 48.2 °F 59% 29.98 in 6.2 mi NW 3.5 mph - N/A   Light Drizzle
6:55 PM 62.6 °F 48.2 °F 59% 29.98 in 6.2 mi North 3.5 mph - N/A   Mostly Cloudy
7:25 PM 64.4 °F 50.0 °F 59% 29.98 in 6.2 mi NNE 3.5 mph - N/A   Overcast
7:55 PM 62.6 °F 50.0 °F 63% 29.98 in 6.2 mi North 8.1 mph - N/A   Mostly Cloudy
8:25 PM 62.6 °F 50.0 °F 63% 29.98 in 6.2 mi North 6.9 mph - N/A   Overcast
8:55 PM 59.0 °F 50.0 °F 72% 29.98 in 6.2 mi NNE 9.2 mph - N/A   Partly Cloudy
9:25 PM 59.0 °F 48.2 °F 67% 29.98 in 6.2 mi NNE 6.9 mph - N/A   Unknown
9:55 PM 55.4 °F 46.4 °F 72% 29.98 in 6.2 mi NE 4.6 mph - N/A   Unknown
10:25 PM 53.6 °F 46.4 °F 77% 29.98 in 6.2 mi ENE 2.3 mph - N/A   Unknown
10:55 PM 50.0 °F 46.4 °F 87% 30.01 in 6.2 mi ENE 3.5 mph - N/A   Unknown
11:25 PM 50.0 °F 46.4 °F 87% 30.01 in 6.2 mi ENE 1.2 mph - N/A   Partly Cloudy
11:55 PM 48.2 °F 44.6 °F 87% 30.01 in 6.2 mi NE 2.3 mph - N/A   Mostly Cloudy